Weather History for KTWF - June, 2013

Change the Weather History Date:

Monday, June 10, 2013

  Actual Average Record
Temperature  
Mean Temperature 77 °F -  
Max Temperature 92 °F 78 °F 92 °F (2013)
Min Temperature 62 °F 48 °F 35 °F (2008)
Degree Days  
Heating Degree Days 0 4  
Month to date heating degree days 10 48  
Since 1 June heating degree days 10 48  
Since 1 July heating degree days 5692 6132  
Cooling Degree Days 12 2  
Month to date cooling degree days 59 17  
Year to date cooling degree days 84 39  
Since 1 June cooling degree days 59 17  
Growing Degree Days 27 (Base 50)    
Moisture  
Dew Point 41 °F    
Average Humidity 33    
Maximum Humidity 43    
Minimum Humidity 23    
Precipitation  
Precipitation 0.00 in 0.04 in 0.30 in (2008)
Month to date precipitation 0.00 0.40  
Year to date precipitation 2.85 5.73  
Sea Level Pressure  
Sea Level Pressure 29.59 in    
Wind  
Wind Speed 9 mph (WSW)    
Max Wind Speed 21 mph    
Max Gust Speed 26 mph    
Visibility 10 miles    
Events      
T = Trace of Precipitation, MM = Missing Value Source: NWS Daily Summary

Daily Weather History Graph

Daily Weather History Graph

Search for Another Location

Airport or City:

Trip Planner

Search our weather history database for the weather conditions in past years. The results will help you decide how hot, cold, wet, or windy it might be!

Date:

Astronomy

Jun. 10, 2013 Rise Set
Actual Time 6:00 AM MDT 9:14 PM MDT
Civil Twilight 5:25 AM MDT 9:49 PM MDT
Nautical Twilight 4:41 AM MDT 10:34 PM MDT
Astronomical Twilight 3:46 AM MDT 11:28 PM MDT
Moon 7:54 AM MDT (6/10) 10:41 PM MDT (6/10)
Length of Visible Light 16h 23m
Length of Day
15h 14m
Waxing Crescent, 4% of the Moon is Illuminated
Jun 10
Waxing Crescent
Jun 16
First Quarter
Jun 23
Full
Jun 29
Last Quarter
Jul 8
New

Hourly Weather History & Observations

Time (MDT) Temp. Dew Point Humidity Pressure Visibility Wind Dir Wind Speed Gust Speed Precip Events Conditions
12:53 AM 75.0 °F 39.9 °F 28% 29.64 in 10.0 mi SSW 8.1 mph - N/A   Clear
1:53 AM 73.0 °F 39.0 °F 29% 29.66 in 10.0 mi SSW 13.8 mph - N/A   Clear
2:53 AM 72.0 °F 39.9 °F 31% 29.64 in 10.0 mi South 11.5 mph - N/A   Clear
3:53 AM 75.9 °F 39.0 °F 26% 29.62 in 10.0 mi SSW 10.4 mph - N/A   Clear
4:53 AM 73.0 °F 39.0 °F 29% 29.61 in 10.0 mi SW 6.9 mph - N/A   Clear
5:53 AM 71.1 °F 39.0 °F 31% 29.62 in 10.0 mi Variable 4.6 mph - N/A   Clear
6:53 AM 64.9 °F 41.0 °F 42% 29.66 in 10.0 mi SSW 5.8 mph - N/A   Clear
7:53 AM 71.1 °F 39.0 °F 31% 29.66 in 10.0 mi WSW 9.2 mph - N/A   Clear
8:53 AM 71.1 °F 39.0 °F 31% 29.69 in 10.0 mi SSW 4.6 mph - N/A   Clear
9:53 AM 73.0 °F 39.0 °F 29% 29.69 in 10.0 mi SSW 4.6 mph - N/A   Clear
10:53 AM 75.0 °F 41.0 °F 29% 29.69 in 10.0 mi WNW 9.2 mph - N/A   Clear
11:53 AM 80.1 °F 39.0 °F 23% 29.65 in 10.0 mi Variable 4.6 mph - N/A   Clear
12:53 PM 82.9 °F 41.0 °F 23% 29.61 in 10.0 mi NW 9.2 mph - N/A   Clear
1:53 PM 82.0 °F 43.0 °F 25% 29.59 in 10.0 mi NW 8.1 mph - N/A   Clear
2:53 PM 84.0 °F 44.1 °F 25% 29.58 in 10.0 mi ENE 4.6 mph - N/A   Clear
3:53 PM 87.1 °F 46.9 °F 25% 29.52 in 10.0 mi ENE 5.8 mph - N/A   Clear
4:53 PM 88.0 °F 48.9 °F 26% 29.50 in 10.0 mi ENE 5.8 mph - N/A   Clear
5:53 PM 89.1 °F 51.1 °F 27% 29.47 in 10.0 mi ENE 6.9 mph - N/A   Clear
6:53 PM 90.0 °F 48.0 °F 24% 29.46 in 10.0 mi NNW 4.6 mph - N/A   Clear
7:53 PM 87.1 °F 48.0 °F 26% 29.46 in 10.0 mi West 11.5 mph - N/A   Clear
8:53 PM 78.1 °F 43.0 °F 29% 29.49 in 10.0 mi WSW 10.4 mph - N/A   Clear
9:53 PM 75.0 °F 37.0 °F 25% 29.52 in 10.0 mi West 16.1 mph 24.2 mph N/A   Clear
10:53 PM 72.0 °F 32.0 °F 23% 29.55 in 10.0 mi WSW 15.0 mph - N/A   Clear
11:53 PM 70.0 °F 35.1 °F 28% 29.58 in 10.0 mi South 17.3 mph - N/A   Clear